Change the Weather History Date:

Thursday, August 1, 2013

  Actual Average Record
Temperature  
Mean Temperature 75 °F 78 °F  
Max Temperature 86 °F 89 °F 102 °F (1941)
Min Temperature 63 °F 68 °F 52 °F (1971)
Degree Days  
Heating Degree Days 0 0  
Month to date heating degree days 0 0  
Since 1 June heating degree days 0 4  
Since 1 July heating degree days 0 0  
Cooling Degree Days 10 14  
Month to date cooling degree days 10 14  
Year to date cooling degree days 828 937  
Since 1 June cooling degree days 650 765  
Growing Degree Days 26 (Base 50)    
Moisture  
Dew Point 66 °F    
Average Humidity 74    
Maximum Humidity 100    
Minimum Humidity 48    
Precipitation  
Precipitation 0.00 in 0.11 in 1.13 in (1950)
Month to date precipitation 0.00 0.11  
Year to date precipitation 37.06 29.83  
Snow  
Snow 0.00 in 0.00 in 0.00 in (2002)
Month to date snowfall 0.0 0.0  
Since 1 June snowfall 0.0 0.0  
Since 1 July snowfall 0.0 0.0  
Snow Depth 0.00 in    
Sea Level Pressure  
Sea Level Pressure 30.01 in    
Wind  
Wind Speed 4 mph (North)    
Max Wind Speed 13 mph    
Max Gust Speed 16 mph    
Visibility 9 miles    
Events      
T = Trace of Precipitation, MM = Missing Value Source: NWS Daily Summary

Daily Weather History Graph

Daily Weather History Graph

Search for Another Location

Airport or City:

Trip Planner

Search our weather history database for the weather conditions in past years. The results will help you decide how hot, cold, wet, or windy it might be!

Date:

Astronomy

Aug. 01, 2013 Rise Set
Actual Time 6:00 AM CDT 8:01 PM CDT
Civil Twilight 5:31 AM CDT 8:30 PM CDT
Nautical Twilight 4:56 AM CDT 9:05 PM CDT
Astronomical Twilight 4:18 AM CDT 9:42 PM CDT
Moon 1:37 AM CDT 4:09 PM CDT
Length of Visible Light 14h 58m
Length of Day
14h 01m
Waning Crescent, 23% of the Moon is Illuminated
Aug 1
Waning Crescent
Aug 6
New
Aug 14
First Quarter
Aug 20
Full
Aug 28
Last Quarter

Hourly Weather History & Observations

Time (CDT) Temp. Heat Index Dew Point Humidity Pressure Visibility Wind Dir Wind Speed Gust Speed Precip Events Conditions
12:53 AM 73.0 °F - 69.1 °F 87% 29.99 in 10.0 mi Calm Calm - N/A   Clear
1:53 AM 72.0 °F - 69.1 °F 91% 29.99 in 10.0 mi NNW 3.5 mph - N/A   Overcast
2:53 AM 71.1 °F - 68.0 °F 90% 29.98 in 10.0 mi NNW 4.6 mph - N/A   Mostly Cloudy
3:53 AM 69.1 °F - 66.9 °F 93% 29.98 in 8.0 mi NW 3.5 mph - N/A   Clear
4:53 AM 68.0 °F - 66.0 °F 93% 29.99 in 7.0 mi Calm Calm - N/A   Clear
5:53 AM 66.0 °F - 64.9 °F 96% 30.01 in 5.0 mi Calm Calm - N/A   Clear
6:53 AM 66.9 °F - 66.0 °F 97% 30.03 in 4.0 mi Calm Calm - N/A   Clear
7:53 AM 71.1 °F - 68.0 °F 90% 30.03 in 7.0 mi North 6.9 mph - N/A   Clear
8:25 AM 73.4 °F - 68.0 °F 83% 30.06 in 9.0 mi NNE 8.1 mph - N/A   Mostly Cloudy
8:49 AM 73.4 °F - 68.0 °F 83% 30.07 in 9.0 mi NNE 6.9 mph - N/A   Scattered Clouds
8:53 AM 73.0 °F - 68.0 °F 84% 30.06 in 8.0 mi NNE 8.1 mph - N/A   Partly Cloudy
9:53 AM 75.9 °F - 68.0 °F 76% 30.06 in 10.0 mi North 6.9 mph - N/A   Clear
10:53 AM 79.0 °F - 68.0 °F 69% 30.06 in 10.0 mi Variable 6.9 mph - N/A   Partly Cloudy
11:53 AM 78.1 °F - 66.9 °F 68% 30.05 in 10.0 mi North 6.9 mph - N/A   Mostly Cloudy
12:53 PM 82.0 °F 84.5 °F 66.9 °F 60% 30.04 in 10.0 mi Variable 4.6 mph - N/A   Partly Cloudy
1:53 PM 84.0 °F 86.5 °F 66.9 °F 56% 30.02 in 10.0 mi North 10.4 mph - N/A   Partly Cloudy
2:53 PM 82.0 °F 84.1 °F 66.0 °F 58% 30.01 in 10.0 mi NNW 5.8 mph - N/A   Clear
3:53 PM 86.0 °F 88.2 °F 66.0 °F 51% 30.00 in 10.0 mi North 5.8 mph - N/A   Partly Cloudy
4:53 PM 86.0 °F 87.6 °F 64.9 °F 49% 29.99 in 10.0 mi North 8.1 mph - N/A   Clear
5:53 PM 84.0 °F 84.5 °F 62.1 °F 47% 29.99 in 10.0 mi North 9.2 mph - N/A   Clear
6:53 PM 82.0 °F 83.1 °F 63.0 °F 52% 29.98 in 10.0 mi North 5.8 mph - N/A   Clear
7:53 PM 75.9 °F - 64.0 °F 67% 29.99 in 10.0 mi Calm Calm - N/A   Clear
8:53 PM 70.0 °F - 64.9 °F 84% 29.99 in 10.0 mi Calm Calm - N/A   Clear
9:53 PM 66.9 °F - 64.0 °F 90% 30.00 in 10.0 mi Calm Calm - N/A   Clear
10:53 PM 66.0 °F - 64.0 °F 93% 30.00 in 10.0 mi Calm Calm - N/A   Clear
11:53 PM 64.0 °F - 63.0 °F 96% 30.01 in 9.0 mi Calm Calm - N/A   Clear